Regional Weather Roundup
Issued by NWS

Home | Current Version | Previous Version | Graphics & Text | Print | Product List | Glossary On
Versions: 1 2 3 4 5 6 7 8 9 10 11 12 13 14 15 16 17 18 19 20 21 22 23 24 25 26 27 28 29 30 31 32 33 34 35 36 37 38 39 40 41 42 43 44 45 46 47 48 49 50
198
ASUS44 KLIX 011605
RWRLA
LOUISIANA WEATHER ROUNDUP
NATIONAL WEATHER SERVICE NEW ORLEANS LA
1100 AM CDT MON SEP 01 2014

NOTE: "FAIR" INDICATES FEW OR NO CLOUDS BELOW 12,000 FEET WITH NO
      SIGNIFICANT WEATHER AND/OR OBSTRUCTIONS TO VISIBILITY.
      SKY/WX - SKY CONDITION AND SIGNIFICANT WEATHER.
      TMP - AIR TEMPERATURE.    DP   - DEWPOINT TEMPERATURE.
      RH  - RELATIVE HUMIDITY.  PRES - PRESSURE.
      HX  - HEAT INDEX.         WCI  - WIND CHILL INDEX.

*  THESE STATIONS ARE NOT NWS OR FAA STATIONS AND ARE NOT UNDER
   NWS QUALITY CONTROL.

LAZ040-048-061>063-065-066-069-011700-
SOUTHEAST LOUISIANA

CITY           SKY/WX    TMP DP  RH WIND       PRES   REMARKS
N.O. AUDUBON     N/A     81  74  77 MISG        N/A
N.O. INTL ARPT PTSUNNY   88  77  69 SE13      30.06S THUNDER HX 100
N.O. LAKEFRONT MOSUNNY   88  74  63 SE15      30.07R HX  96
N.O. DOWNTOWN* PTSUNNY   90  73  58 SE6       30.07S HX  98
SLIDELL        MOSUNNY   89  75  63 S12G20    30.07S HX  99
BATON ROUGE    PTSUNNY   87  75  67 SE13      30.05R HX  96
BOOTHVILLE     LGT RAIN  80  75  84 SE12G22   30.08R
BELLE CHASSE   PTSUNNY   88  75  65 S13       30.05S THUNDER HX  97
BOGALUSA*        N/A     88  74  64 S7        30.09S HX  97
GALLIANO*      NOT AVBL
NEW ROADS*     FAIR      87  76  69 SE12      30.05R HX  98
GONZALES*      LGT RAIN  85  76  75 S15G22    30.05R
HAMMOND*       LGT RAIN  82  73  74 SE10      30.09R
HOUMA*         NOT AVBL
PORT FOURCHON* SUNNY     84  77  79 SE13      30.07S

$$

LAZ041-044-053-054-011700-
SOUTHWEST LOUISIANA

CITY           SKY/WX    TMP DP  RH WIND       PRES   REMARKS
LAKE CHARLES   SUNNY     87  78  74 SE12      30.00R HX 100
LAFAYETTE      MOSUNNY   88  76  67 SE9       30.03R HX  99
PATTERSON      MOSUNNY   88  79  74 SE13      30.07R HX 102
SALT POINT       N/A     89  78  70 S9        30.03R HX 103
NEW IBERIA     PTSUNNY   88  76  67 S14       30.03S HX  99
CHENAULT AIRPK PTSUNNY   86  75  70 S8        30.01S HX  95

$$

LAZ027-028-011700-
CENTRAL LOUISIANA

CITY           SKY/WX    TMP DP  RH WIND       PRES   REMARKS
FORT POLK      PTSUNNY   84  75  74 S7        30.02R
ALEXANDRIA INT MOSUNNY   85  77  77 S8        30.01S HX  95
ALEXANDRIA     PTSUNNY   89  76  65 VRB7      30.03S HX 100

$$

LAZ001-002-011700-
NORTHWEST LOUISIANA

CITY           SKY/WX    TMP DP  RH WIND       PRES   REMARKS
SHREVEPORT     PTSUNNY   89  73  59 S10G20    29.99S HX  97
BARKSDALE AFB  MOSUNNY   88  73  60 S14       30.00R HX  95
DTN SHREVEPORT PTSUNNY   86  73  65 S12       30.00R

$$

LAZ014-016-011700-
NORTHEAST LOUISIANA

CITY           SKY/WX    TMP DP  RH WIND       PRES   REMARKS
MONROE         PTSUNNY   84  76  76 S7        30.05R
TALLULAH       MOSUNNY   87  76  69 S8        30.06R HX  97

$$




USA.gov is the U.S. government's official web portal to all federal, state and local government web resources and services.